STARLINK-32376, 61707

Orbit data source: Space-Track

STARLINK-32376, 61707 is a payload satellite owned by SpaceX/Seattle (US) in LEO that was launched on Wed, 30 Oct 2024 UTC via an FALCON 9 launch vehicle from the Air Force Eastern Test Range (AFETR). Payload-class satellites include a variety of spacecraft equipped with specific instruments for various scientific and technological missions. These include communications satellites like Starlink; space stations such as the ISS; scientific satellites like the Hubble; Earth observation satellites from companies like Planet Labs, Umbra, and HawkEye 360; GPS; miniature CubeSats for education and research; and military/defense satellites.

Loading next visibility...
Identifier
61707, 2024-196A
Orbit
LEO
Last TLE update
10 hours ago
Origin
Manufacturer
SpaceX/Seattle
Mission
Operational Commercial Communications
Bus & Motor
STARLINK V2M, Unknown motor
Mass
730 kg wet, ~700 kg dry
Launch date (UTC)
2024-10-30 (6 months ago)
Launch vehicle
FALCON 9
Launch site
Air Force Eastern Test Range (AFETR)
Object type
Payload
Rocket body
Debris
Shape & HBR
Box + 2 Pan, 29 m
Radar Cross Section
36.964 m², Large (>1 m²)

Expand to show TLE details & history

TLE from 10 hours ago
0 STARLINK-32376
1 61707U 24196A   25129.27331845 -.00000060  00000-0  10114-4 0  9993
2 61707  53.1609  75.0008 0001272  82.0815 278.0331 15.30196098 30574
Epoch: 2025-05-09T06:33Z
Definitive object data (Epoch: 2025-05-09T06:33:34.714Z)
Latitude
0.00007°
Longitude
109.27438°
Altitude
476.005 km
Speed
7.629 km/s
True Right ascension
05h 00m 00s
True Declination
0° 00' 00"
Sunlit
Object was in daylight at TLE epoch
Visualization TLE readout
Latitude
41.71776°
Longitude
149.02752°
Altitude
478.409 km
Speed
7.632 km/s
Apparent Right ascension
09h 57m 17s
Apparent Declination
3° 17' 38"
Sunlit
Object is in daylight
Visualization observer readout
Local Sidereal Time
00:22:56
Azimuth
46.642° ENE
Elevation
-35.404°
Doppler factor
1
Orbital elements
Apogee altitude
476.355 km
Perigee altitude
474.611 km
Semi-major axis
6,853.62 km
Eccentricity
0.0001272
Inclination
53.1609°
RAAN
75.0008°
Arg. of periapsis
82.0815°
True anomaly
278.01867°
Mean anomaly
278.0331°
Eccentric anomaly
278.02588°
Mean motion
3.82528 °/min
BSTAR
0.000010114
Orbital period
94.11 mins
Loading maneuver chart data...
Loading SW <> Apogee altitude chart data...
Loading historical data...
Loading historical data...
Loading historical data...
Loading historical data...
Loading historical data...
Loading historical data...
Loading historical data...

STARLINK-32376 Visibility forecast

Observer location: undefined°, undefined°

Span
Click to sort rows by Start time (UTC) header in descending order
Start Az.
Max El. time (UTC)
Max El. Az.
Max El.
End time (UTC)
End Az.
6 mins2025-05-09 22:23:30.357Z193.869° SSW2025-05-09 22:26:30.357Z127.848° SE28.269°2025-05-09 22:29:30.357Z68.959° E
5 mins2025-05-10 00:02:30.357Z280.901° WNW2025-05-10 00:04:30.357Z337.4° NNW27.659°2025-05-10 00:07:30.357Z33.632° NE
5 mins2025-05-10 04:59:30.357Z343.661° N2025-05-10 05:01:30.357Z41.852° NE27.74°2025-05-10 05:04:30.357Z96.278° ESE
4 mins2025-05-10 06:37:30.357Z272.683° WNW2025-05-10 06:39:30.357Z212.949° SW27.337°2025-05-10 06:41:30.357Z171.007° S
|